Location: Presov
(49.0000°N, 21.2500°E)
Time: 17:37:22
(UTC+02:00)

BlueWalker 3 - Visible Passes

Search period start: 15 April 2024 00:00
Search period end: 25 April 2024 00:00
Orbit: 485 x 496 km, 53.2° (Epoch: 15 April)

Date Brightness Start Highest point End Pass type
(mag) Time Alt. Az. Time Alt. Az. Time Alt. Az.
15 Apr 4.4 02:00:34 17° ENE 02:00:34 17° ENE 02:01:38 10° E visible
15 Apr 1.7 03:35:02 38° WNW 03:36:22 76° SSW 03:40:12 10° ESE visible
16 Apr 2.0 03:12:28 61° SE 03:12:28 61° SE 03:15:41 10° ESE visible
16 Apr 3.4 04:47:02 10° W 04:49:38 18° SW 04:52:13 10° S visible
16 Apr 3.9 20:13:41 10° SE 20:14:21 10° SE 20:14:52 10° ESE visible
16 Apr 3.7 21:48:09 10° SW 21:49:28 20° SW 21:49:28 20° SW visible
17 Apr 4.3 02:50:33 14° ESE 02:50:33 14° ESE 02:51:10 10° ESE visible
17 Apr 3.3 04:25:07 18° SW 04:25:07 18° SW 04:27:47 10° S visible
17 Apr 2.0 21:23:38 10° SW 21:27:19 50° SSE 21:28:12 40° ESE visible
17 Apr 4.3 23:01:51 10° W 23:02:46 16° W 23:02:46 16° W visible
18 Apr 2.1 20:59:06 10° SW 21:02:47 48° SE 21:06:09 12° ENE visible
18 Apr 2.6 22:37:16 10° W 22:40:40 52° NW 22:40:40 52° NW visible
19 Apr 2.2 20:34:32 10° SW 20:38:12 46° SE 20:41:53 10° ENE visible
19 Apr 2.5 22:12:40 10° W 22:16:26 55° NNW 22:17:54 33° NE visible
19 Apr 4.5 23:51:25 10° WNW 23:52:22 16° WNW 23:52:22 16° WNW visible
20 Apr 2.3 20:10:00 10° SW 20:13:37 44° SE 20:17:17 10° ENE visible
20 Apr 2.5 21:48:04 10° W 21:51:51 57° NNW 21:54:41 17° ENE visible
20 Apr 3.7 23:26:49 10° WNW 23:29:08 30° NW 23:29:08 30° NW visible
21 Apr 2.5 21:23:27 10° W 21:27:13 58° NNW 21:31:01 10° ENE visible
21 Apr 3.0 23:02:12 10° WNW 23:05:39 43° N 23:05:39 43° N visible
22 Apr 2.5 20:58:48 10° W 21:02:35 59° NNW 21:06:23 10° ENE visible
22 Apr 3.0 22:37:34 10° WNW 22:41:15 43° N 22:42:00 38° NE visible
23 Apr 4.6 00:15:57 10° WNW 00:16:25 13° WNW 00:16:25 13° WNW visible
23 Apr 2.5 20:34:09 10° W 20:37:56 60° NNW 20:41:44 10° ENE visible
23 Apr 3.0 22:12:54 10° WNW 22:16:35 43° N 22:18:14 27° ENE visible
23 Apr 4.1 23:51:17 10° WNW 23:52:39 21° WNW 23:52:39 21° WNW visible
24 Apr 3.0 21:48:14 10° WNW 21:51:54 43° N 21:54:25 18° ENE visible
24 Apr 3.4 23:26:38 10° WNW 23:28:49 32° WNW 23:28:49 32° WNW visible
